Location: Unspecified
(0.0000°N, 0.0000°E)
Time: 09:01:09
(UTC+02:00)

Centaur D-1AR AC-41 - Visible Passes

Search period start: 24 October 2014 00:00
Search period end: 02 November 2014 23:00
Orbit: 650 x 36193 km, 21.3° (Epoch: 23 October)

Date Brightness Start Highest point End Pass type
(mag) Time Alt. Az. Time Alt. Az. Time Alt. Az.
24 Oct 7.6 00:00:00 38° WNW 01:14:27 54° W 09:39:00 10° E visible
24 Oct 8.6 20:54:38 10° WNW 23:57:06 86° SSE 07:06:43 10° ESE visible
25 Oct 7.5 18:21:52 10° NW 01:37:29 70° SSE 03:30:38 10° ESE visible
26 Oct 9.5 18:24:40 10° E 22:55:20 38° ESE 00:42:22 10° ESE visible
28 Oct 9.6 00:02:54 10° WNW 01:28:09 30° W 04:52:31 10° W visible
28 Oct 8.9 21:11:52 10° WNW 22:55:21 72° W 07:21:42 10° ESE visible
29 Oct 8.2 18:36:20 10° NW 23:35:21 78° SSE 04:48:15 10° ESE visible
30 Oct 6.9 16:04:48 10° NW 23:56:50 58° SE 02:08:45 10° ESE visible
31 Oct 9.8 19:10:56 10° ESE 21:41:42 22° ESE 23:03:56 10° ESE visible
02 Nov 5.8 07:48:41 10° WSW 08:30:14 60° SSE 08:35:56 10° E visible
02 Nov 8.7 19:51:55 10° WNW 21:47:53 89° ESE 23:00:00 82° SW visible
